Regional Weather Roundup
Issued by NWS

Home | Current Version | Previous Version | Graphics & Text | Print | Product List | Glossary On
Versions: 1 2 3 4 5 6 7 8 9 10 11 12 13 14 15 16 17 18 19 20 21 22 23 24 25 26 27 28 29 30 31 32 33 34 35 36 37 38 39 40 41 42 43 44 45 46 47 48 49 50
000
ASUS43 KLMK 191002
RWRKY
KENTUCKY REGIONAL WEATHER ROUNDUP
NATIONAL WEATHER SERVICE LOUISVILLE KY
600 AM EDT THU APR 19 2018

NOTE "FAIR" INDICATES FEW OR NO CLOUDS BELOW 12,000 FEET
WITH NO SIGNIFICANT WEATHER AND/OR OBSTRUCTIONS TO VISIBILITY.

KYZ001>023-026-027-061>063-070>075-191100-
WESTERN AND SOUTH CENTRAL KENTUCKY

CITY           SKY/WX    TMP DP  RH WIND       PRES   REMARKS
PADUCAH        CLOUDY    42  24  49 N15G29    30.15R
HENDERSON      CLOUDY    39  26  59 NW14G20   30.14R WCI  31
OWENSBORO      CLOUDY    40  26  57 NW16      30.12R WCI  31
HOPKINSVILLE   MOCLDY    41  25  52 NW18G25   30.11R
BOWLING GREEN  CLOUDY    43  29  57 NW13G22   30.09R
GLASGOW        NOT AVBL
$$

KYZ024-025-028>034-038-045-046-053-191100-
NORTH CENTRAL KENTUCKY

CITY           SKY/WX    TMP DP  RH WIND       PRES   REMARKS
LOUISVILLE/SDF MOCLDY    40  25  55 NW14G25   30.05R WCI  32
LOUISVILLE/LOU CLOUDY    40  28  62 W15G23    30.05R WCI  32
FORT KNOX      CLOUDY    39  26  60 NW10G20   30.06R WCI  32
$$

KYZ035>037-039>044-047>052-055>060-089>105-191100-
NORTHEAST KENTUCKY

CITY           SKY/WX    TMP DP  RH WIND       PRES   REMARKS
LEXINGTON      CLOUDY    40  29  64 W12       29.99R WCI  33
COVINGTON      CLOUDY    39  29  67 W18G26    29.96R WCI  30
FRANKFORT      CLOUDY    40  25  55 W12G20    29.99R WCI  33
$$

KYZ054-064>069-076>088-106>120-191100-
SOUTHEAST KENTUCKY

CITY           SKY/WX    TMP DP  RH WIND       PRES   REMARKS
JACKSON        CLOUDY    43  34  70 W13G26    29.93R
LONDON         CLOUDY    43  37  79 NW9       29.97R
SOMERSET       NOT AVBL
MIDDLESBORO    CLOUDY    48  39  70 W6        29.95R
MONTICELLO     CLOUDY    44  35  70 NW14G25   30.02R
$$




USA.gov is the U.S. government's official web portal to all federal, state and local government web resources and services.